Wind_Speed
23 22 23 23 22 21 20 21 22 22 21 20 19 18 18 17 15 14 14 14 14 14 15 15 15 16 16 15 14 15 16 16 14 13 12 11 11 11 12 12 12 12 12 12 12 12 12 12 14 16 18 19 20 20 21 22 22 23 24 26 27 27 27 26 24 24 26 28 31 32 33 35 36 37 37 36 36 34 31 31 34 38 42 45 46
26 24 25 24 23 23 22 23 23 23 22 21 20 19 18 18 17 16 16 17 17 17 17 17 17 17 16 16 16 16 16 14 13 12 11 11 11 11 11 11 12 12 12 12 11 12 12 13 14 16 17 19 19 19 20 21 22 23 24 25 27 28 28 26 25 24 25 28 30 32 33 35 37 37 37 37 36 35 32 32 34 35 36 40 42
28 26 26 26 25 24 24 24 24 24 23 23 22 20 19 19 18 18 18 19 18 18 18 18 18 18 17 17 17 16 14 13 11 11 11 10 10 10 10 11 11 12 12 12 11 11 12 13 14 15 17 18 18 19 20 21 22 23 24 25 26 28 28 27 25 25 25 26 29 31 32 34 37 38 37 36 36 35 32 31 33 34 32 34 37
29 28 27 27 27 26 26 26 25 25 24 24 24 23 22 22 21 21 20 19 19 20 20 20 20 19 19 18 17 15 13 11 10 10 10 10 9 9 10 11 11 11 12 11 10 11 12 13 14 15 17 18 19 20 21 22 23 23 24 24 25 27 28 28 26 25 25 25 27 29 31 34 37 38 37 36 35 36 33 30 31 33 33 32 33
31 29 28 28 28 27 27 26 25 25 25 25 25 25 25 25 24 22 21 20 20 21 21 21 21 20 19 17 15 13 11 10 10 10 10 9 8 8 9 11 11 11 11 10 10 11 12 12 13 15 17 18 19 20 21 22 22 23 24 24 24 25 27 28 27 26 26 25 26 28 30 33 36 37 38 36 35 36 36 33 31 30 32 33 31
33 31 30 29 29 28 27 27 26 26 26 26 26 26 25 25 25 23 21 21 21 22 23 22 21 20 18 16 14 12 11 10 9 9 9 8 8 9 10 11 11 11 10 10 11 11 12 12 13 15 17 18 19 20 21 22 22 23 23 24 23 23 25 28 27 26 26 26 26 28 29 32 35 36 37 37 36 37 37 36 33 29 29 29 27
35 32 31 30 29 28 27 27 27 27 27 26 26 25 25 25 24 23 22 23 23 23 23 22 20 18 16 14 13 12 10 10 10 9 9 8 8 10 11 11 11 11 10 10 11 11 12 13 14 16 17 18 19 20 20 21 22 22 23 23 23 23 23 26 27 26 26 26 26 28 29 31 33 35 37 37 37 38 38 37 35 31 27 25 24
36 33 31 30 29 29 28 27 27 27 27 26 26 25 25 24 24 24 24 24 24 23 22 20 18 17 15 13 12 11 10 10 9 9 8 9 9 11 11 11 11 11 10 11 12 12 12 13 15 16 17 18 19 19 20 21 22 22 22 23 23 23 22 24 26 26 26 26 27 27 29 30 32 34 36 36 37 37 36 33 34 33 28 24 23
36 33 31 31 30 29 29 28 27 26 26 26 26 26 25 25 24 24 23 23 22 21 20 19 17 15 14 13 11 11 10 10 9 9 9 10 10 11 11 11 11 10 11 12 13 13 12 13 15 16 17 18 18 19 20 21 21 22 22 22 23 23 21 22 24 26 26 26 27 27 28 29 31 33 35 36 36 37 35 31 29 30 29 26 22
36 34 31 30 30 30 29 28 27 26 26 26 26 25 25 24 24 23 22 22 21 20 19 17 16 15 13 12 11 10 10 9 9 9 10 10 11 11 11 11 11 11 12 13 13 13 13 14 15 15 16 17 18 19 20 21 21 21 21 22 22 22 21 20 22 25 26 26 27 27 27 28 29 32 34 35 35 35 36 33 30 28 28 27 21
34 34 32 31 30 30 29 28 27 26 25 25 24 24 24 23 22 21 21 20 20 18 17 16 14 14 12 11 10 10 9 9 10 10 10 11 10 10 11 12 12 12 13 14 14 13 13 14 14 15 16 18 19 19 21 21 22 21 21 21 22 22 21 20 20 22 24 25 26 27 27 28 29 30 32 34 34 34 34 34 32 29 26 25 22
32 32 32 32 31 30 29 28 27 26 25 24 23 22 22 22 21 20 19 19 18 17 16 15 14 13 12 11 10 9 10 10 11 11 11 11 10 10 11 12 13 13 14 14 14 13 13 13 14 15 17 18 19 20 21 21 21 21 21 21 22 22 21 20 19 20 22 24 25 26 27 28 28 29 30 32 34 34 34 33 33 31 26 22 21
31 31 31 31 31 31 30 29 27 26 26 24 23 22 21 21 20 19 18 17 16 16 15 14 13 12 11 10 9 9 10 10 11 10 11 10 10 10 11 13 13 14 15 14 13 13 13 13 13 15 17 19 19 20 21 21 21 21 21 21 22 22 22 20 19 19 20 22 24 26 27 28 29 29 29 31 33 34 34 33 33 33 30 24 20
30 30 30 30 30 30 30 29 27 27 26 25 24 23 22 21 20 19 18 16 16 15 14 14 14 13 12 11 10 10 10 10 9 10 11 11 10 11 12 13 14 14 14 13 12 12 12 12 13 15 17 19 19 20 20 20 20 21 21 21 22 22 22 21 20 19 19 21 23 25 27 27 28 30 29 30 32 33 34 33 33 34 33 29 24
28 28 29 29 29 29 28 28 27 27 26 26 25 23 23 22 21 20 18 17 17 16 16 16 16 15 13 12 11 11 11 10 9 11 12 12 12 12 13 14 14 13 13 13 13 12 12 12 13 15 17 18 19 19 20 20 20 20 21 21 21 22 23 22 21 20 19 20 22 24 26 27 28 30 30 29 31 32 33 33 32 33 34 32 27
25 26 27 27 27 27 27 27 26 26 25 25 24 23 22 22 21 20 19 18 19 18 18 17 16 15 13 12 12 12 11 11 12 13 14 13 12 13 13 13 13 13 13 13 13 12 12 12 13 15 16 18 19 19 19 19 19 20 20 21 21 22 23 23 22 21 20 20 22 24 25 27 27 29 30 29 30 32 32 32 32 32 33 33 30
23 23 24 24 25 26 26 25 25 24 24 24 23 23 22 22 21 21 19 19 18 17 17 16 15 14 13 12 12 13 13 13 14 15 16 15 13 13 13 13 13 13 13 13 13 12 12 12 13 14 15 17 18 20 19 18 18 19 19 20 21 22 22 23 23 22 21 21 22 24 25 26 27 28 29 29 29 30 31 31 31 31 33 33 32
20 21 21 21 22 23 23 23 23 23 23 23 23 22 22 21 21 20 19 18 17 16 16 16 15 15 14 13 13 14 14 13 14 15 15 14 13 13 13 12 12 12 12 12 12 11 11 11 12 13 14 15 17 19 19 19 17 17 18 19 20 21 22 22 22 22 22 22 23 24 25 26 26 27 28 29 29 29 30 31 31 31 31 32 32
18 18 19 19 19 20 20 20 20 20 20 20 21 20 20 20 20 19 19 17 17 16 16 16 15 15 14 14 14 14 14 13 13 13 13 13 12 13 12 12 12 12 11 11 11 10 10 10 11 12 13 14 15 17 19 19 17 15 16 18 19 21 22 23 22 22 22 22 23 24 24 25 26 25 26 28 28 28 29 30 30 30 30 31 31
16 16 16 16 17 17 17 17 17 17 17 18 18 18 18 18 18 17 17 16 15 15 15 15 14 14 14 13 14 14 13 13 13 13 12 12 11 11 12 11 11 11 11 11 11 10 9 9 10 10 11 12 14 15 17 18 17 15 14 15 17 20 22 23 23 22 21 22 23 24 24 24 25 24 25 26 27 27 28 29 29 29 29 30 30
14 14 14 15 15 15 16 15 15 15 15 15 16 15 16 16 16 16 15 14 14 14 14 14 14 14 14 13 13 14 14 13 13 12 12 11 11 11 11 11 10 10 10 10 10 10 10 9 9 10 11 12 13 14 15 16 17 16 13 12 14 17 19 21 23 24 23 21 22 22 23 23 24 24 24 25 27 27 27 28 29 29 29 29 30
12 13 13 13 14 14 14 15 14 14 14 14 14 14 14 15 15 15 14 14 14 14 14 14 14 14 14 14 13 14 14 13 13 12 12 11 11 11 11 11 10 9 9 8 9 10 10 9 9 9 11 11 12 13 13 15 16 17 14 11 12 14 16 18 20 23 24 22 21 21 21 22 23 24 24 24 26 26 26 28 28 28 28 29 30
11 12 12 12 13 13 13 13 13 13 13 13 13 13 14 14 14 14 14 14 14 14 14 14 14 14 14 14 13 13 14 13 12 12 12 11 11 11 10 10 10 10 10 10 9 9 9 8 8 9 11 12 12 12 12 14 16 17 16 12 10 11 13 15 17 21 23 23 21 20 20 20 22 24 24 24 25 25 26 27 27 27 27 28 29
9 10 11 11 12 12 12 12 13 12 12 12 12 12 13 13 13 13 13 13 13 14 14 14 13 13 13 13 13 12 13 13 12 11 11 11 11 11 10 10 10 10 11 11 10 8 8 9 8 9 11 12 13 12 11 12 15 16 16 15 12 10 11 12 14 17 21 22 21 20 19 18 20 23 24 24 25 25 26 27 27 26 26 27 29
8 9 10 10 10 11 11 12 12 12 11 11 11 11 11 12 12 12 12 12 12 13 13 12 12 12 12 12 11 11 12 12 11 10 10 10 10 10 10 10 10 11 11 12 12 10 9 9 8 9 11 12 12 12 11 11 14 15 15 15 14 12 11 11 12 14 18 21 20 19 18 18 19 23 24 24 25 25 26 27 27 26 26 27 28
6 7 8 9 9 10 11 12 12 12 11 11 10 10 11 11 11 11 11 12 12 12 12 12 12 12 12 11 11 11 11 10 10 9 9 10 10 10 10 10 10 11 11 11 11 11 9 8 8 10 11 10 11 12 11 11 13 14 13 13 14 14 12 11 11 12 15 18 19 18 18 17 19 22 24 25 26 26 26 27 28 27 26 26 26
5 5 6 7 8 9 10 11 11 11 11 11 11 10 11 11 12 12 12 12 13 13 13 13 13 13 13 12 12 12 11 11 10 10 10 11 11 10 10 10 10 10 11 11 11 10 9 8 9 10 10 9 11 11 11 12 13 14 12 11 13 13 12 11 11 11 13 16 17 17 17 17 19 22 25 26 27 27 27 28 29 29 27 26 26
7 6 6 6 7 8 9 10 11 11 12 11 11 11 12 12 12 12 13 14 14 14 14 15 14 15 14 14 14 14 14 13 13 13 13 13 13 12 12 12 12 11 11 11 11 11 10 9 10 11 10 9 9 10 11 12 14 14 12 11 11 12 11 11 11 11 12 14 16 17 17 17 19 23 25 27 27 27 27 28 30 30 28 27 26
9 8 7 7 6 7 8 9 10 11 12 12 12 12 13 13 13 13 14 14 15 15 16 16 16 16 16 16 16 16 16 16 16 16 15 15 15 14 14 13 13 13 13 13 13 12 13 12 12 13 12 10 10 11 12 13 14 14 13 12 11 12 11 10 10 10 11 13 15 16 17 17 20 24 26 27 28 28 28 29 30 30 29 28 27
10 10 9 9 8 7 7 8 8 10 11 12 13 14 14 14 14 14 14 15 15 16 16 16 16 16 16 16 17 17 17 17 18 17 17 17 17 16 15 15 15 15 15 15 15 15 16 16 16 15 15 14 14 15 15 15 15 15 14 13 13 12 11 10 10 11 12 13 15 16 17 19 21 25 27 28 28 29 29 30 31 31 31 30 30
12 11 11 11 10 9 9 8 8 9 11 12 13 14 15 15 15 15 15 15 16 16 17 16 17 17 17 17 17 18 18 18 18 18 18 18 18 17 17 16 16 17 17 17 18 18 18 18 18 18 18 18 17 17 17 17 16 15 15 15 15 14 13 12 11 12 13 15 16 18 19 21 23 26 27 28 29 30 31 32 33 33 33 34 34
13 13 12 12 12 12 12 11 10 10 11 11 13 14 15 16 16 16 16 16 16 16 17 17 17 17 17 17 17 18 18 18 18 18 18 18 18 17 17 17 17 18 18 19 19 20 20 20 20 20 20 19 19 18 18 18 17 16 16 16 16 15 14 13 13 13 14 16 19 20 22 24 26 27 29 29 31 32 34 35 36 36 37 38 39
15 15 14 13 13 14 15 15 13 12 12 12 12 14 15 16 17 17 16 16 16 16 17 17 17 17 17 17 18 18 18 18 18 18 18 17 17 17 17 18 18 18 18 19 20 21 22 22 22 22 21 20 20 19 19 19 18 17 16 17 17 16 15 14 14 15 18 20 23 25 27 28 29 30 31 32 33 35 36 37 39 40 41 42 43
16 16 16 15 14 14 15 16 16 14 13 13 13 14 15 16 17 18 18 17 16 16 16 16 17 16 17 17 17 17 17 18 18 17 17 17 17 17 17 18 18 18 18 19 21 22 23 23 24 24 23 22 21 20 19 19 19 18 18 17 17 16 16 16 18 20 23 26 28 29 30 31 32 32 33 34 35 36 37 39 40 42 43 44 45
17 17 17 17 16 15 15 16 16 16 15 14 14 14 14 15 16 17 18 17 16 16 15 15 16 16 16 16 16 16 16 17 17 17 17 17 17 17 17 17 18 18 19 19 20 22 23 24 25 25 25 24 23 22 21 20 19 19 19 18 18 19 20 21 24 26 29 30 31 32 33 33 34 35 35 36 36 37 38 40 41 42 43 44 45
18 18 18 18 17 17 16 16 16 16 16 14 14 14 14 14 14 15 16 17 16 15 15 14 14 15 15 15 15 15 15 15 15 15 15 15 16 16 16 16 17 18 19 19 20 21 23 24 25 26 25 25 24 23 22 21 21 21 21 22 23 24 26 28 29 31 32 33 34 34 35 36 36 37 37 37 38 39 39 40 41 42 42 43 44
17 19 19 19 18 18 18 17 16 16 15 14 14 13 13 13 13 12 12 13 14 14 14 13 13 13 13 13 13 13 13 13 13 13 14 14 14 14 14 14 15 16 18 19 20 21 22 23 25 26 25 26 25 24 23 24 24 25 26 28 29 30 32 33 33 34 35 35 36 36 37 37 37 37 37 37 37 38 38 38 39 39 40 40 41
16 18 19 19 19 19 18 17 17 16 15 14 13 13 12 12 12 11 10 9 10 11 11 11 11 11 11 11 11 11 11 11 11 11 11 12 12 12 12 12 13 14 15 17 18 19 20 22 23 25 25 25 25 24 24 25 26 28 30 32 33 34 35 36 36 36 36 36 36 36 36 36 35 36 36 36 36 36 36 36 36 36 37 37 37
16 17 18 20 20 20 19 18 17 17 16 15 13 13 12 12 11 11 9 8 7 8 8 9 8 8 8 8 8 8 8 8 9 9 9 9 9 10 10 10 10 11 12 13 14 16 17 19 20 22 23 23 23 23 23 24 25 27 29 31 33 34 34 35 34 34 33 33 33 33 33 32 32 32 32 32 32 32 32 32 32 32 32 32 32
17 17 18 20 21 21 20 18 18 17 17 16 15 13 13 12 11 11 10 9 7 6 6 6 6 6 6 5 5 5 6 6 6 6 6 7 7 7 7 8 8 8 9 10 11 12 13 15 16 18 19 20 21 21 21 22 23 25 27 29 30 31 31 31 30 30 29 29 29 28 28 28 28 27 27 27 27 27 26 27 27 27 27 27 27
20 19 19 20 20 21 21 20 19 18 18 17 16 15 14 13 12 11 10 9 8 6 5 4 4 3 3 3 3 3 3 3 3 3 3 4 4 4 4 5 5 6 6 7 7 8 9 10 12 13 15 16 18 18 19 19 20 22 24 26 27 27 27 27 26 26 25 25 24 24 23 23 22 22 22 22 21 21 21 21 22 22 22 22 22
22 21 21 21 20 20 20 21 21 20 20 19 18 17 16 15 14 12 11 10 10 8 6 5 4 3 3 3 2 2 2 1 1 1 1 1 1 1 1 1 2 2 3 3 4 4 5 6 7 8 10 12 14 15 16 17 18 19 21 22 23 24 24 23 22 21 21 20 19 19 18 18 17 17 17 16 16 16 17 17 17 17 17 18 18
25 24 23 23 22 20 20 21 21 21 21 21 21 20 18 17 15 14 13 12 11 10 9 8 6 5 5 5 4 4 4 3 3 2 2 2 2 2 2 2 2 1 1 0 0 1 2 3 4 5 6 7 9 11 13 14 15 16 17 18 20 21 20 20 19 17 17 15 14 14 13 13 13 13 12 12 11 12 12 13 13 13 13 13 13
29 29 27 26 24 22 21 21 21 21 21 22 22 22 21 19 18 17 15 15 14 13 12 11 10 9 8 7 7 6 6 5 5 5 5 4 5 5 5 5 5 5 4 3 3 3 3 3 4 4 5 5 6 7 8 10 12 13 14 15 16 17 17 17 17 15 13 11 9 9 8 8 8 8 7 7 7 7 8 8 8 8 9 9 10
32 32 31 28 27 25 23 23 23 22 22 22 23 23 23 22 21 20 18 17 16 16 15 14 13 12 10 9 9 8 8 8 7 7 7 7 7 7 8 8 8 7 6 6 5 5 5 5 5 6 6 6 6 6 6 7 9 11 12 13 14 14 14 15 14 13 12 10 8 7 6 5 5 4 3 2 3 3 4 4 5 5 6 7 7
33 34 33 31 28 27 25 24 25 25 24 23 23 24 24 23 23 23 22 20 19 18 17 16 15 14 13 13 12 11 10 10 9 10 9 9 9 9 9 10 10 9 8 8 8 7 7 7 6 7 7 7 7 7 7 7 8 9 10 11 12 12 13 12 12 11 11 9 8 8 7 6 5 4 4 3 2 2 3 4 5 6 6 6 7
34 35 34 32 30 29 28 27 27 27 27 26 25 25 24 24 24 24 23 22 22 21 20 19 18 18 17 17 16 14 14 13 12 11 11 11 11 11 10 11 11 11 10 10 10 11 10 9 9 8 9 9 10 10 10 10 10 10 10 11 11 12 12 12 12 12 12 11 11 10 9 9 8 8 8 7 7 6 6 6 6 7 8 8 9
36 35 34 34 34 33 33 32 30 30 30 30 29 28 26 24 23 22 22 22 23 23 22 21 21 20 20 20 19 17 16 15 13 12 12 13 14 13 12 12 13 13 12 11 12 14 13 12 11 10 11 11 12 12 13 13 13 12 12 12 13 13 13 12 13 13 13 14 13 12 12 12 12 12 12 11 11 11 10 10 10 10 10 10 11
38 38 36 36 37 37 37 36 35 32 31 32 32 31 29 27 25 23 23 23 23 24 24 23 22 22 21 21 21 20 18 16 15 14 15 15 16 16 15 14 14 14 12 11 14 16 16 15 14 13 13 13 13 13 14 15 15 15 15 15 15 16 16 15 15 15 15 16 15 15 15 16 16 16 15 15 15 15 14 14 13 13 13 13 13
38 39 38 38 39 39 39 40 39 36 34 34 34 33 32 29 28 27 26 27 26 26 25 24 24 24 23 23 22 21 19 18 17 18 18 18 19 19 17 16 17 15 12 11 14 18 19 18 17 16 15 14 14 14 14 15 15 16 16 17 18 19 19 19 19 19 18 19 19 18 18 19 19 19 19 19 19 18 18 17 17 17 17 17 17
37 38 38 38 40 40 40 41 42 40 38 37 35 34 33 31 30 30 30 30 30 27 25 25 25 26 25 24 23 22 21 21 20 21 20 20 21 21 19 19 19 15 12 12 16 20 20 19 19 17 16 15 15 16 15 15 15 16 17 18 19 21 22 21 21 22 21 22 22 22 22 22 22 22 23 23 23 22 22 22 21 21 20 19 19
Wind_Direction
63 71 83 88 86 85 88 92 93 94 96 98 100 104 106 108 111 113 114 112 111 112 113 113 113 112 108 107 109 112 112 107 99 92 84 73 66 65 61 53 46 39 35 32 35 45 47 38 29 26 26 25 23 23 27 31 33 33 31 30 28 27 30 34 34 32 34 37 38 37 34 31 28 25 23 24 29 32 34 37 38 38 37 39 42
66 74 84 88 86 85 87 91 93 94 96 99 101 103 105 107 109 110 109 108 109 109 109 110 110 108 106 109 113 113 108 101 95 87 77 69 66 64 58 51 43 38 36 33 40 50 48 39 30 26 26 25 24 25 27 30 31 31 30 29 28 27 29 33 35 34 34 37 38 37 35 32 29 27 26 26 29 33 36 41 46 44 39 40 43
67 76 83 84 83 82 86 89 93 94 96 99 101 102 104 106 107 107 106 106 106 107 107 108 108 107 110 113 113 108 101 96 89 81 73 67 64 61 55 49 44 40 36 36 45 53 48 39 32 28 26 25 25 26 26 27 28 28 29 28 27 26 28 31 34 34 33 34 36 36 34 33 30 29 29 30 31 36 40 44 51 52 47 44 45
68 76 80 80 78 78 82 86 90 93 96 98 101 103 103 104 104 103 103 103 104 106 107 108 109 112 114 113 108 101 95 89 82 76 70 65 62 58 53 50 47 41 38 44 51 52 47 40 33 29 26 25 26 25 24 25 25 26 26 28 27 26 27 29 33 34 33 32 34 35 33 32 31 30 32 33 35 38 41 47 52 56 58 55 51
68 74 77 76 75 75 78 82 88 93 96 97 99 100 101 102 103 103 103 103 104 106 108 110 113 115 112 107 101 95 89 82 77 72 67 63 58 55 55 54 49 44 44 52 54 51 45 38 34 29 26 27 26 25 25 24 24 24 25 27 28 27 26 28 31 33 32 31 32 34 32 32 31 31 34 36 40 41 42 47 51 54 60 60 54
65 71 73 72 73 73 76 80 85 90 92 94 94 95 98 100 102 104 105 105 106 110 112 114 114 111 106 100 95 90 84 78 73 69 65 61 57 59 59 54 49 50 55 58 55 49 42 35 32 29 28 28 27 25 25 24 23 23 23 26 29 29 27 28 30 32 33 31 31 33 33 33 32 31 34 37 39 41 42 45 49 54 58 58 57
62 67 70 71 72 72 74 77 82 86 88 90 92 94 96 98 100 103 106 108 111 113 113 112 108 103 99 95 89 85 81 78 73 68 65 63 64 65 59 53 54 60 62 61 56 49 40 33 29 30 32 30 28 26 24 23 22 21 22 25 30 32 29 28 30 32 32 32 31 32 33 33 33 32 33 36 37 40 44 43 45 53 59 60 61
60 64 68 69 70 72 74 76 80 84 87 89 91 93 95 97 100 103 106 109 110 109 107 103 99 96 92 88 85 84 81 77 72 67 67 70 71 65 58 58 62 66 65 61 56 50 41 32 30 32 34 32 29 26 24 23 21 19 19 23 29 33 31 28 30 32 32 33 32 32 34 34 33 33 32 34 36 40 44 43 41 48 56 62 65
58 62 65 67 68 70 73 76 79 82 86 89 91 93 95 97 99 101 103 104 103 102 99 96 94 91 89 87 86 84 79 73 70 70 74 77 72 63 61 64 67 68 66 61 57 52 42 33 33 35 35 33 29 26 25 24 21 19 19 23 28 33 34 30 30 32 33 33 33 31 34 35 34 34 33 33 34 36 39 40 38 40 48 53 59
57 60 63 65 67 69 71 75 79 82 85 88 90 92 94 95 96 97 98 98 98 97 96 94 93 92 90 88 83 77 72 71 72 77 80 77 68 62 63 67 70 71 67 63 60 55 44 36 35 35 35 34 29 26 26 25 22 20 20 23 28 32 35 33 30 32 34 34 34 33 33 36 37 34 34 33 33 34 34 37 37 37 47 50 51
57 60 62 65 67 68 70 73 76 80 83 86 89 90 92 93 95 95 95 95 96 96 96 94 92 91 87 81 76 73 73 76 81 83 80 72 63 61 63 68 74 76 70 66 62 57 49 41 37 35 34 33 30 28 29 27 25 23 23 25 28 31 35 35 31 32 35 34 35 35 33 35 39 37 34 32 32 33 33 36 38 38 48 55 54
56 58 61 64 66 67 69 71 73 76 80 83 85 87 89 91 92 92 92 93 94 94 93 91 87 83 80 79 79 79 83 85 87 83 75 67 61 61 64 71 79 80 74 68 65 61 53 44 38 33 33 33 31 31 32 30 28 27 27 28 28 30 33 35 34 31 34 36 35 35 34 33 38 40 36 33 31 31 32 36 41 42 47 55 57
55 57 60 62 65 67 68 69 71 74 77 79 81 83 85 87 88 89 90 91 92 91 89 84 80 78 79 82 83 85 87 88 86 78 69 67 64 64 69 76 82 83 79 73 67 62 56 47 39 33 33 33 32 33 34 33 32 32 32 31 30 30 32 34 34 31 32 35 35 36 35 32 35 40 39 35 32 31 32 35 39 43 46 51 55
55 56 59 61 64 66 68 69 70 72 74 75 77 79 81 82 84 85 87 88 87 84 81 78 77 78 80 82 84 83 82 80 75 70 68 68 69 69 75 81 84 83 81 77 68 61 55 47 40 35 33 34 34 35 36 35 35 36 35 34 33 31 32 33 34 32 30 33 35 35 36 32 31 37 40 37 34 32 33 34 36 40 44 48 54
56 56 58 60 62 65 67 68 69 71 73 74 75 76 78 80 81 82 83 83 81 79 78 79 79 79 80 80 79 76 73 68 63 65 70 73 72 74 79 84 84 81 79 76 69 59 52 47 41 36 34 35 37 37 37 37 37 38 38 36 35 34 33 33 34 33 29 29 33 35 37 34 30 34 39 39 36 34 34 36 36 37 41 46 52
58 57 58 60 61 62 65 67 68 69 72 74 74 76 77 80 81 81 81 80 81 80 80 80 80 79 78 76 75 72 70 67 66 69 71 72 73 75 79 82 82 77 72 72 69 58 50 46 42 38 37 37 39 39 38 38 39 40 40 39 38 37 35 34 34 35 32 30 33 35 37 37 32 31 37 40 38 36 36 37 38 37 39 43 49
60 59 58 60 61 61 62 64 66 67 70 73 74 75 76 78 79 79 79 78 79 80 81 80 79 77 75 72 72 73 72 70 70 73 74 73 72 72 74 75 76 73 68 67 66 59 51 46 42 39 39 39 39 39 38 39 40 41 43 42 41 40 37 35 35 36 35 33 34 35 36 39 35 30 34 39 40 38 37 38 40 39 38 41 46
60 60 59 59 60 60 60 61 63 64 67 70 72 73 74 74 75 76 76 76 76 76 77 77 76 74 72 68 67 69 69 68 68 71 74 76 73 70 70 69 69 68 65 66 64 59 51 46 42 40 37 37 37 37 37 38 40 43 45 47 46 44 40 37 35 36 37 36 36 36 36 39 39 33 31 37 41 40 38 39 41 41 40 41 44
59 61 60 60 59 60 60 59 59 60 61 65 67 70 71 71 71 72 72 72 72 71 71 72 70 68 67 64 62 61 61 61 61 64 69 72 72 70 67 64 63 63 61 61 61 57 50 43 42 39 35 33 34 34 35 36 38 44 49 51 52 49 44 40 36 35 37 37 37 36 35 38 42 37 32 34 40 42 40 40 42 43 42 42 44
56 59 60 60 59 60 60 58 57 56 56 58 60 63 65 67 66 66 66 65 65 64 64 64 62 60 59 57 57 55 54 54 55 58 61 62 64 65 64 60 58 60 59 57 57 55 49 41 39 36 30 29 30 31 33 34 36 42 50 54 54 51 47 43 39 36 37 38 38 37 35 37 41 42 36 34 39 43 42 41 43 45 44 45 45
52 56 58 60 60 59 60 59 56 55 54 55 55 57 59 61 62 62 61 60 59 59 59 60 58 56 55 53 54 55 53 52 52 55 58 58 59 60 62 58 53 54 57 55 54 53 51 44 37 33 29 27 26 28 31 33 35 39 47 54 55 52 48 45 41 38 37 39 40 38 35 35 39 43 41 37 39 43 43 42 43 46 47 47 48
46 51 53 55 58 58 58 59 58 55 55 56 57 57 58 60 61 61 61 60 58 58 57 58 57 56 56 54 54 56 56 54 53 54 56 56 57 58 60 58 52 49 47 48 51 53 51 44 40 36 31 27 24 25 30 33 34 37 42 50 54 51 48 44 41 39 38 39 41 40 37 35 36 42 43 41 40 43 45 43 43 46 49 49 49
41 44 47 49 53 55 56 57 57 55 55 56 57 59 60 62 63 64 64 63 61 60 59 58 57 57 57 56 54 55 58 56 54 53 55 53 51 52 55 54 51 45 41 40 43 50 49 44 43 39 32 29 24 25 33 34 34 37 40 46 50 49 46 42 39 38 38 39 41 41 40 36 37 41 44 43 42 45 46 45 44 47 50 51 51
41 41 44 46 48 51 52 53 54 54 53 53 53 56 59 61 62 64 65 64 63 62 60 58 56 55 54 55 53 52 55 55 51 50 51 51 49 46 44 45 45 43 40 37 35 39 44 44 44 37 31 28 23 27 36 35 33 36 40 43 44 45 44 40 38 36 36 38 40 41 41 39 39 41 45 45 45 47 48 47 46 48 51 53 53
42 43 45 44 44 45 47 49 50 49 48 48 49 51 56 57 59 60 62 62 61 61 59 56 55 54 53 53 52 50 51 51 47 42 41 44 45 43 39 38 40 41 39 36 33 34 39 44 41 28 26 26 25 30 36 33 31 32 37 40 41 41 42 41 38 34 33 35 38 41 42 43 43 42 45 48 47 48 50 48 46 49 53 55 55
28 38 44 45 43 42 43 44 45 43 42 43 43 45 50 53 53 55 57 58 58 56 56 55 54 55 54 54 54 53 51 49 43 36 34 34 35 34 31 27 29 32 31 28 29 32 35 36 24 13 18 28 30 32 33 30 27 26 30 37 36 37 42 44 42 36 32 33 36 41 43 46 46 44 47 51 51 51 51 49 47 50 55 57 58
356 16 31 39 40 39 40 42 41 39 37 36 36 38 42 45 46 47 50 53 53 52 51 52 52 53 53 52 52 51 50 48 44 37 32 31 29 26 24 20 19 22 23 22 24 26 27 21 10 8 19 32 31 30 29 23 19 21 29 35 33 34 42 48 47 40 34 32 35 41 45 49 49 47 50 53 54 54 54 52 49 51 56 60 61
327 340 358 16 27 32 37 40 38 37 36 32 31 34 37 40 42 42 45 48 50 50 48 49 50 51 50 51 50 50 49 47 45 42 39 38 37 34 32 29 26 25 27 28 28 26 25 21 17 19 28 34 26 22 20 16 16 23 32 35 32 35 43 51 52 45 38 36 37 43 48 53 52 51 53 56 57 59 59 56 53 54 58 62 65
315 319 330 342 356 11 23 31 30 29 31 30 28 31 34 38 41 43 44 47 49 51 50 49 49 49 49 50 51 50 49 48 47 46 45 44 44 42 41 40 38 36 36 37 36 33 32 32 32 32 35 33 25 20 20 21 23 29 36 38 37 41 49 56 55 49 43 41 44 48 53 56 56 55 57 60 62 63 63 61 59 59 61 65 69
311 311 314 320 328 339 355 11 14 16 21 24 24 26 30 35 39 42 45 48 51 53 53 51 51 51 51 50 50 49 50 50 50 49 48 47 47 46 45 45 45 44 43 43 41 40 38 38 38 37 36 34 31 29 30 33 35 34 37 42 45 50 58 62 60 55 51 50 53 57 61 63 62 61 63 65 67 68 68 68 66 66 67 71 74
310 309 310 312 315 319 327 341 350 358 7 14 17 20 24 31 36 40 43 47 52 55 55 54 54 54 53 52 50 49 49 50 50 50 51 50 49 48 46 46 45 45 45 45 44 43 42 41 39 39 38 37 35 34 36 40 43 41 41 47 53 59 64 65 64 62 60 61 65 68 71 72 72 71 72 73 74 75 75 75 75 75 76 78 81
311 310 310 310 312 313 315 321 329 339 350 0 7 12 18 26 33 38 41 46 50 54 56 56 55 56 55 54 52 49 48 48 49 50 51 51 51 48 46 44 44 44 46 46 46 45 44 43 42 41 41 40 39 38 40 45 49 48 49 54 59 64 67 68 68 68 70 74 77 80 83 84 83 83 82 82 83 83 83 84 84 84 85 86 87
310 309 309 309 311 312 312 314 319 326 335 344 353 3 12 22 30 36 39 43 48 52 56 57 56 57 56 55 54 51 48 46 46 48 48 49 50 49 46 44 44 45 46 47 46 46 46 46 46 46 45 45 45 45 46 50 54 57 59 62 66 69 71 73 75 78 83 87 90 93 94 94 93 92 91 91 91 91 91 91 91 91 92 92 92
307 306 306 306 307 308 310 312 315 319 328 336 343 352 4 16 27 33 36 39 44 48 53 56 57 58 57 57 56 53 50 47 45 44 43 44 46 46 45 45 45 44 44 45 46 47 49 50 50 51 51 52 53 53 54 56 60 65 68 70 72 75 77 81 86 90 95 99 101 102 102 101 101 100 99 98 97 97 97 97 97 97 96 96 96
303 304 304 303 303 303 306 310 313 316 323 332 339 346 354 5 19 30 33 34 38 41 45 51 55 58 59 58 58 56 54 50 48 44 40 39 40 41 41 42 43 42 41 42 44 47 50 53 54 55 55 56 57 59 61 64 68 72 75 78 81 83 87 92 97 101 105 107 108 108 108 107 106 105 104 103 102 102 101 101 101 100 100 100 99
297 301 303 303 302 301 301 305 309 313 318 326 335 341 346 353 4 19 28 31 33 36 39 42 49 55 59 59 58 58 56 53 51 48 43 40 38 38 39 38 39 39 38 38 40 43 47 51 55 58 59 59 60 62 67 72 76 78 81 85 89 93 98 102 106 109 112 113 113 112 112 111 110 109 108 107 106 106 105 105 104 104 103 103 102
294 299 301 302 301 301 301 301 304 308 312 319 328 334 339 343 349 1 17 26 29 32 35 37 41 49 56 59 60 60 59 57 53 50 48 44 40 39 38 37 37 37 37 37 37 38 41 45 51 57 60 61 63 66 72 78 82 86 91 95 99 103 107 110 113 115 116 116 116 115 115 114 113 112 112 111 110 109 108 107 107 106 105 104 103
295 299 301 302 300 299 301 301 303 305 308 314 320 325 330 334 337 342 355 12 22 26 31 35 37 43 50 57 62 64 63 61 59 54 50 47 44 42 40 38 38 38 38 39 38 37 38 41 47 53 59 63 67 71 78 85 91 97 103 107 110 113 115 116 117 118 118 118 118 117 116 115 115 114 113 112 111 110 109 108 107 106 105 104 103
298 300 303 303 301 300 301 301 302 304 306 308 312 316 320 324 326 327 332 345 3 14 21 29 34 37 42 50 61 67 68 67 65 60 55 50 47 44 42 40 39 39 41 42 42 41 41 42 46 52 58 64 70 76 84 91 99 106 112 115 118 119 120 120 121 120 120 120 119 117 116 115 114 113 112 111 110 109 107 106 105 104 103 103 102
298 299 302 302 301 301 301 300 300 300 301 301 303 304 307 310 313 314 314 317 327 345 2 15 25 29 30 37 49 59 66 70 68 65 61 56 49 43 42 41 38 38 41 43 46 47 47 47 48 53 59 65 71 78 87 96 104 111 117 121 123 124 124 124 124 123 122 121 119 117 115 113 112 110 109 108 106 105 103 103 102 101 101 100 99
292 294 296 297 299 300 299 297 296 295 295 294 293 292 292 292 294 296 296 295 296 303 322 342 359 10 12 15 24 34 48 62 69 69 64 61 56 46 40 40 38 37 36 39 46 51 54 55 55 58 62 68 73 80 89 98 107 115 122 126 128 130 130 129 128 127 125 123 120 118 115 113 110 108 105 102 100 98 97 97 97 97 96 95 94
282 286 288 289 293 296 295 293 291 291 290 289 288 286 284 283 282 283 285 286 287 288 293 304 316 322 323 324 330 333 343 353 14 52 68 58 50 39 25 23 36 42 36 33 41 54 65 71 70 70 72 76 81 87 94 103 110 118 126 131 134 135 136 134 132 130 128 126 124 121 118 115 112 108 103 98 95 93 93 92 90 89 89 88 86
276 278 280 281 283 287 289 288 287 287 286 285 285 284 284 283 282 283 285 287 290 292 292 295 300 307 308 307 306 308 308 306 297 286 270 259 260 258 254 260 262 253 219 211 98 91 109 108 106 102 100 99 99 100 105 113 120 126 132 137 140 142 142 142 139 136 132 129 126 126 123 119 114 109 103 98 94 94 92 88 84 82 80 78 75
274 274 275 275 275 277 280 282 282 282 282 281 282 282 283 285 286 286 286 286 289 290 290 290 290 293 298 300 301 301 299 296 293 286 275 263 257 257 257 256 255 254 248 235 229 217 198 176 162 154 148 142 136 130 127 129 133 138 142 145 149 151 152 152 152 149 144 138 136 138 135 130 124 114 101 92 89 89 88 83 75 70 66 62 59
271 270 270 269 269 270 273 276 277 278 279 280 280 280 280 282 284 284 283 282 281 280 280 280 280 282 284 287 289 290 288 284 281 278 273 266 257 255 260 264 263 262 262 260 254 245 234 224 207 196 191 186 179 172 166 160 156 156 157 158 160 164 166 166 167 167 166 162 161 165 165 163 159 147 124 90 73 67 63 55 44 39 36 35 34
265 264 265 265 264 264 267 269 271 272 274 275 276 277 278 277 278 279 278 278 277 276 275 275 276 276 276 277 277 278 278 275 271 268 267 265 259 252 254 262 268 268 270 272 273 267 257 251 241 230 222 217 213 208 202 197 189 183 180 178 177 180 182 184 186 190 193 195 195 197 200 207 216 219 228 248 273 314 342 354 358 1 2 2 2
259 258 259 260 258 257 257 259 260 263 265 265 267 269 270 271 271 272 273 274 274 274 273 272 272 271 270 270 269 269 269 269 269 270 272 272 269 261 254 255 260 264 266 269 271 271 266 260 256 252 248 241 234 228 223 219 217 213 209 205 203 201 202 204 206 209 214 217 222 226 226 232 243 246 248 255 260 266 283 299 312 324 331 334 336
251 251 253 254 253 252 253 253 255 258 261 262 264 266 266 265 265 266 267 268 268 269 268 266 265 265 264 264 264 263 264 264 265 269 271 272 272 269 264 258 256 256 257 260 265 267 265 261 256 253 253 251 245 239 233 231 230 230 229 229 227 224 224 225 224 224 225 227 233 240 242 247 255 257 257 260 262 264 270 278 284 291 297 303 308
246 247 249 250 250 251 254 256 257 258 259 261 263 266 266 265 266 268 268 267 266 266 265 263 262 261 261 261 262 261 261 261 263 266 268 269 270 268 267 266 261 254 248 249 258 263 263 260 257 253 250 247 246 245 241 238 237 236 237 239 240 239 239 239 238 237 237 236 238 243 249 254 258 261 264 267 268 268 272 276 280 283 286 291 293
243 245 245 248 250 250 252 256 258 257 256 256 259 262 263 262 263 265 267 267 266 265 264 265 264 261 259 259 259 260 260 260 261 263 264 265 265 264 262 262 259 252 239 235 248 257 260 260 258 254 250 247 246 245 244 242 242 241 241 243 244 244 244 243 243 243 244 245 245 245 249 254 255 257 262 265 267 270 272 274 277 279 282 285 288
240 241 242 244 248 250 249 250 254 256 254 254 255 257 259 259 260 262 264 264 265 264 265 266 265 263 261 258 258 258 259 258 258 259 259 260 262 262 259 257 256 250 235 232 243 252 257 260 258 255 253 250 248 246 243 242 244 245 244 244 244 245 246 247 248 248 248 250 250 248 248 253 255 256 258 261 264 268 272 274 275 277 277 279 280
Height
10941 10940 10939 10939 10939 10939 10939 10939 10939 10939 10940 10941 10943 10944 10946 10947 10949 10951 10952 10953 10955 10956 10957 10958 10959 10959 10960 10961 10962 10963 10964 10965 10966 10966 10967 10967 10967 10967 10967 10966 10966 10965 10965 10964 10963 10961 10960 10960 10959 10957 10955 10954 10952 10951 10949 10947 10945 10944 10942 10940 10938 10936 10933 10930 10928 10925 10922 10919 10916 10913 10910 10907 10903 10900 10896 10892 10889 10886 10883 10879 10875 10873 10871 10868 10864
10943 10942 10942 10942 10942 10942 10941 10941 10941 10941 10942 10943 10945 10946 10947 10949 10950 10952 10953 10954 10956 10957 10958 10959 10960 10960 10961 10962 10964 10965 10966 10967 10967 10968 10968 10968 10968 10968 10968 10967 10967 10966 10966 10965 10963 10962 10961 10961 10959 10958 10957 10955 10953 10952 10950 10948 10946 10945 10943 10941 10939 10936 10934 10932 10929 10927 10924 10921 10917 10914 10911 10909 10905 10902 10898 10894 10891 10887 10884 10882 10878 10877 10876 10873 10871
10946 10945 10945 10945 10945 10945 10944 10944 10944 10944 10945 10946 10947 10948 10949 10951 10952 10954 10955 10956 10957 10958 10959 10960 10960 10962 10963 10965 10966 10967 10968 10968 10969 10969 10969 10969 10970 10969 10969 10968 10968 10967 10966 10965 10964 10963 10962 10961 10960 10959 10958 10956 10955 10953 10951 10949 10947 10945 10944 10942 10940 10937 10935 10933 10931 10928 10926 10923 10919 10916 10913 10911 10908 10904 10900 10897 10893 10890 10887 10884 10882 10881 10880 10878 10877
10949 10948 10948 10948 10948 10948 10947 10946 10947 10947 10948 10949 10949 10950 10951 10953 10954 10956 10957 10958 10959 10959 10960 10961 10962 10964 10965 10967 10968 10969 10969 10970 10970 10970 10970 10971 10971 10970 10969 10969 10968 10968 10967 10966 10965 10964 10963 10962 10961 10960 10959 10957 10956 10954 10952 10950 10948 10946 10945 10943 10941 10939 10937 10934 10932 10930 10927 10925 10921 10918 10915 10913 10910 10907 10903 10900 10896 10893 10890 10888 10886 10884 10883 10882 10883
10952 10952 10951 10951 10951 10951 10950 10950 10950 10950 10951 10952 10952 10953 10954 10955 10956 10957 10959 10960 10961 10961 10962 10963 10965 10966 10967 10968 10969 10970 10971 10971 10972 10972 10972 10972 10971 10971 10970 10970 10969 10969 10968 10967 10966 10965 10964 10963 10962 10961 10960 10958 10957 10955 10953 10951 10949 10947 10946 10944 10942 10940 10938 10936 10934 10932 10929 10927 10923 10920 10917 10915 10912 10909 10906 10902 10899 10896 10894 10891 10889 10887 10886 10885 10887
10957 10956 10955 10955 10954 10954 10954 10953 10953 10953 10954 10954 10955 10955 10956 10957 10958 10959 10961 10962 10963 10964 10965 10966 10967 10968 10969 10970 10971 10972 10972 10973 10973 10973 10973 10972 10972 10971 10971 10970 10970 10969 10968 10968 10967 10966 10966 10965 10963 10962 10961 10959 10958 10956 10954 10952 10950 10949 10947 10945 10944 10942 10940 10938 10936 10933 10931 10929 10926 10923 10920 10917 10914 10911 10908 10905 10902 10900 10897 10893 10891 10890 10888 10887 10889
10961 10960 10960 10959 10958 10958 10957 10957 10956 10956 10956 10957 10958 10958 10959 10960 10961 10962 10963 10964 10965 10966 10967 10968 10969 10970 10971 10972 10973 10973 10974 10974 10974 10973 10973 10973 10973 10972 10971 10971 10970 10970 10969 10969 10968 10967 10967 10966 10965 10963 10962 10960 10959 10957 10955 10953 10952 10950 10948 10947 10945 10943 10941 10939 10937 10935 10933 10931 10928 10925 10922 10919 10917 10914 10911 10907 10905 10903 10900 10897 10894 10893 10891 10890 10890
10966 10965 10964 10963 10963 10962 10961 10961 10960 10960 10960 10960 10961 10962 10962 10963 10964 10965 10966 10967 10968 10968 10969 10970 10971 10972 10973 10974 10974 10974 10975 10974 10974 10974 10974 10974 10973 10973 10972 10972 10971 10971 10970 10970 10969 10969 10968 10967 10966 10964 10963 10961 10960 10958 10956 10955 10953 10951 10949 10948 10946 10945 10943 10941 10939 10937 10935 10932 10930 10927 10924 10921 10919 10916 10913 10910 10907 10905 10904 10901 10897 10894 10894 10893 10893
10970 10969 10969 10968 10967 10966 10965 10964 10964 10964 10964 10964 10965 10965 10966 10967 10967 10968 10969 10969 10970 10970 10971 10972 10973 10974 10974 10975 10975 10975 10975 10975 10975 10975 10975 10975 10974 10973 10973 10972 10972 10972 10971 10971 10970 10969 10969 10968 10967 10965 10964 10962 10961 10959 10957 10956 10954 10952 10950 10949 10947 10946 10944 10943 10941 10939 10937 10934 10932 10929 10927 10924 10921 10919 10916 10913 10910 10907 10907 10905 10900 10898 10898 10897 10895
10975 10974 10973 10972 10971 10970 10969 10969 10968 10968 10968 10968 10969 10969 10969 10970 10971 10971 10971 10972 10972 10973 10973 10974 10975 10975 10976 10976 10976 10976 10976 10976 10976 10976 10976 10975 10975 10974 10974 10973 10973 10973 10972 10972 10971 10970 10970 10969 10968 10967 10965 10963 10962 10960 10958 10957 10955 10953 10952 10950 10948 10947 10946 10944 10942 10940 10938 10936 10934 10932 10929 10926 10923 10921 10919 10916 10914 10911 10908 10906 10903 10902 10901 10900 10898
10979 10978 10977 10976 10974 10974 10973 10972 10972 10972 10972 10972 10972 10972 10972 10973 10973 10974 10974 10974 10975 10975 10975 10976 10977 10977 10977 10977 10977 10977 10977 10977 10977 10977 10977 10976 10976 10975 10974 10973 10973 10973 10973 10973 10972 10971 10970 10970 10969 10968 10966 10964 10963 10961 10959 10958 10956 10954 10953 10951 10949 10948 10947 10945 10944 10942 10940 10938 10936 10933 10931 10929 10926 10923 10921 10919 10917 10915 10911 10908 10906 10904 10902 10901 10900
10983 10982 10981 10979 10978 10977 10976 10976 10976 10975 10975 10976 10976 10976 10975 10975 10976 10976 10977 10977 10977 10977 10977 10978 10978 10978 10978 10978 10978 10979 10978 10978 10978 10978 10977 10977 10976 10975 10974 10974 10974 10974 10974 10974 10973 10972 10971 10971 10970 10968 10967 10965 10964 10962 10960 10959 10957 10955 10954 10952 10950 10949 10947 10946 10945 10943 10941 10940 10937 10935 10933 10931 10928 10926 10923 10921 10919 10917 10915 10912 10909 10907 10904 10902 10901
10987 10986 10985 10983 10982 10980 10980 10980 10980 10979 10979 10979 10979 10979 10978 10978 10978 10979 10979 10980 10980 10980 10980 10980 10980 10979 10980 10980 10980 10980 10980 10979 10979 10979 10978 10977 10977 10976 10975 10975 10975 10975 10975 10975 10974 10973 10972 10972 10971 10969 10968 10966 10964 10963 10961 10960 10958 10957 10955 10953 10951 10950 10948 10947 10946 10944 10943 10941 10939 10937 10935 10933 10930 10928 10926 10924 10922 10920 10917 10914 10912 10910 10907 10905 10903
10991 10990 10989 10987 10986 10984 10984 10984 10984 10983 10982 10982 10982 10982 10981 10981 10981 10982 10982 10982 10982 10982 10982 10982 10981 10981 10981 10982 10982 10982 10981 10981 10980 10979 10978 10978 10977 10977 10976 10976 10976 10975 10975 10975 10975 10974 10973 10972 10971 10970 10968 10967 10965 10964 10962 10961 10959 10958 10956 10955 10953 10951 10949 10948 10946 10945 10943 10942 10940 10938 10936 10934 10932 10930 10928 10926 10924 10922 10919 10917 10914 10912 10910 10907 10905
10994 10994 10992 10991 10990 10989 10988 10987 10987 10986 10986 10985 10985 10985 10985 10984 10984 10984 10985 10985 10984 10984 10984 10983 10983 10983 10984 10984 10984 10983 10983 10982 10981 10980 10979 10979 10978 10978 10977 10977 10977 10977 10976 10975 10975 10974 10974 10973 10972 10971 10969 10968 10966 10965 10963 10962 10961 10959 10958 10956 10954 10952 10950 10949 10947 10946 10944 10943 10941 10940 10938 10936 10934 10932 10930 10928 10926 10924 10922 10920 10917 10915 10913 10910 10908
10997 10997 10996 10995 10994 10993 10992 10991 10991 10990 10989 10989 10989 10989 10988 10987 10987 10987 10987 10987 10986 10986 10986 10985 10985 10985 10985 10985 10985 10984 10984 10983 10982 10981 10980 10980 10980 10979 10979 10978 10978 10978 10977 10976 10975 10975 10975 10974 10973 10972 10970 10969 10967 10966 10964 10963 10962 10961 10959 10958 10956 10954 10952 10950 10949 10947 10946 10944 10942 10941 10939 10937 10936 10935 10932 10930 10928 10927 10925 10923 10920 10918 10916 10913 10912
11000 10999 10999 10998 10997 10997 10996 10995 10994 10994 10993 10992 10992 10992 10991 10990 10990 10989 10989 10989 10989 10988 10988 10987 10987 10987 10987 10987 10986 10986 10985 10984 10984 10982 10982 10982 10982 10981 10980 10980 10979 10979 10978 10977 10976 10976 10975 10975 10974 10972 10971 10970 10968 10967 10966 10964 10963 10962 10961 10959 10958 10956 10954 10952 10950 10949 10947 10946 10944 10942 10941 10939 10938 10936 10935 10932 10930 10929 10927 10925 10923 10921 10918 10916 10914
11002 11001 11001 11001 11000 10999 10999 10998 10998 10998 10997 10996 10995 10994 10994 10993 10992 10992 10992 10992 10991 10991 10990 10989 10989 10989 10989 10988 10988 10987 10987 10986 10985 10984 10983 10983 10983 10983 10982 10981 10980 10979 10979 10978 10977 10977 10976 10975 10974 10973 10972 10971 10969 10968 10967 10966 10964 10963 10962 10961 10959 10957 10956 10954 10952 10950 10949 10947 10945 10944 10942 10941 10939 10938 10937 10935 10932 10931 10929 10927 10925 10923 10921 10919 10917
11004 11003 11003 11003 11002 11002 11001 11001 11001 11001 11000 10999 10998 10997 10996 10995 10995 10994 10994 10994 10994 10993 10992 10991 10991 10991 10991 10990 10990 10989 10988 10988 10987 10986 10985 10985 10984 10984 10983 10982 10981 10981 10980 10978 10978 10977 10977 10976 10975 10974 10973 10972 10970 10969 10968 10967 10966 10965 10963 10962 10961 10959 10957 10955 10954 10952 10950 10949 10947 10945 10944 10942 10941 10940 10939 10937 10935 10933 10931 10930 10928 10926 10924 10921 10920
11006 11006 11005 11005 11005 11004 11004 11003 11003 11003 11003 11002 11000 11000 10999 10998 10997 10997 10996 10996 10996 10995 10994 10993 10993 10993 10992 10992 10991 10990 10990 10989 10988 10987 10987 10986 10985 10985 10984 10983 10983 10982 10981 10980 10979 10978 10977 10977 10976 10975 10974 10972 10971 10970 10969 10968 10967 10966 10965 10964 10962 10961 10959 10957 10956 10954 10952 10950 10948 10947 10945 10944 10943 10941 10940 10939 10937 10935 10933 10932 10930 10928 10926 10924 10922
11009 11008 11008 11007 11007 11006 11006 11005 11005 11005 11005 11004 11003 11002 11001 11000 10999 10999 10998 10998 10997 10997 10996 10995 10995 10994 10994 10993 10992 10992 10991 10990 10989 10988 10988 10987 10987 10986 10985 10984 10984 10983 10982 10981 10980 10979 10978 10977 10976 10975 10975 10973 10972 10971 10970 10969 10968 10967 10966 10965 10964 10962 10961 10959 10958 10956 10954 10952 10950 10949 10947 10946 10944 10943 10941 10940 10938 10937 10935 10934 10932 10930 10928 10927 10925
11011 11011 11010 11009 11009 11008 11008 11007 11007 11007 11006 11006 11005 11004 11003 11002 11001 11001 11000 11000 10999 10999 10998 10997 10997 10996 10995 10995 10994 10993 10992 10991 10991 10990 10989 10989 10988 10987 10986 10985 10985 10984 10983 10982 10980 10979 10978 10978 10977 10976 10975 10974 10973 10972 10971 10970 10969 10968 10966 10966 10965 10963 10962 10961 10959 10958 10955 10953 10952 10950 10949 10947 10946 10945 10943 10942 10940 10938 10937 10936 10934 10932 10930 10929 10927
11013 11013 11012 11011 11011 11010 11009 11009 11009 11009 11008 11008 11007 11006 11005 11004 11003 11003 11002 11002 11001 11000 11000 10999 10999 10998 10997 10996 10995 10994 10993 10992 10992 10991 10991 10990 10989 10988 10987 10987 10986 10985 10984 10982 10981 10980 10979 10979 10978 10977 10976 10975 10973 10972 10972 10971 10970 10969 10967 10966 10966 10964 10963 10962 10961 10959 10957 10955 10954 10952 10951 10949 10948 10946 10945 10943 10942 10940 10939 10937 10936 10934 10932 10931 10929
11015 11015 11014 11014 11013 11012 11012 11011 11011 11011 11010 11010 11009 11008 11008 11007 11006 11005 11005 11004 11003 11002 11002 11001 11000 11000 10999 10998 10997 10996 10994 10994 10993 10993 10992 10991 10991 10990 10989 10988 10987 10985 10984 10983 10982 10981 10980 10980 10979 10978 10977 10975 10974 10973 10972 10972 10971 10970 10969 10967 10966 10966 10964 10963 10962 10961 10959 10957 10956 10954 10952 10951 10950 10948 10947 10945 10944 10942 10941 10939 10938 10936 10934 10932 10931
11017 11017 11016 11016 11015 11014 11014 11013 11012 11012 11012 11012 11011 11010 11010 11009 11009 11008 11007 11006 11005 11004 11004 11003 11002 11001 11000 10999 10998 10997 10996 10995 10995 10994 10993 10992 10991 10991 10990 10989 10988 10986 10985 10984 10983 10982 10982 10981 10980 10979 10977 10976 10975 10974 10973 10973 10972 10971 10969 10968 10967 10966 10966 10965 10964 10962 10961 10959 10957 10956 10954 10953 10951 10950 10948 10947 10945 10944 10943 10941 10939 10938 10936 10934 10933
11018 11018 11018 11018 11017 11016 11016 11015 11014 11014 11014 11014 11013 11013 11012 11012 11011 11010 11009 11008 11007 11006 11005 11005 11004 11003 11002 11001 11000 10999 10998 10997 10996 10996 10995 10993 10992 10992 10991 10989 10988 10987 10986 10985 10984 10983 10983 10982 10981 10979 10978 10977 10976 10975 10974 10973 10972 10971 10970 10969 10968 10967 10967 10966 10965 10964 10962 10961 10959 10957 10956 10954 10953 10952 10950 10949 10947 10946 10945 10943 10941 10940 10938 10937 10935
11019 11019 11019 11019 11018 11018 11017 11016 11016 11016 11016 11015 11015 11014 11014 11013 11013 11012 11011 11010 11009 11008 11007 11006 11005 11004 11003 11002 11001 11000 10999 10998 10997 10997 10996 10994 10993 10992 10991 10990 10989 10988 10987 10986 10985 10985 10984 10983 10982 10980 10979 10978 10977 10976 10975 10974 10973 10972 10971 10970 10969 10968 10967 10967 10966 10965 10964 10962 10960 10959 10957 10956 10955 10954 10952 10950 10949 10948 10946 10945 10943 10942 10940 10939 10938
11020 11020 11020 11020 11020 11019 11019 11018 11018 11018 11017 11017 11016 11016 11015 11015 11014 11014 11013 11012 11010 11010 11009 11008 11007 11006 11005 11004 11003 11002 11001 11000 10999 10998 10996 10995 10994 10993 10992 10991 10990 10989 10988 10987 10986 10986 10985 10984 10982 10981 10980 10979 10978 10977 10976 10975 10973 10972 10971 10971 10970 10969 10968 10968 10967 10966 10965 10963 10962 10960 10959 10958 10957 10955 10954 10952 10951 10950 10948 10947 10946 10944 10943 10942 10940
11020 11021 11021 11021 11020 11020 11020 11019 11019 11019 11019 11018 11017 11017 11016 11016 11016 11015 11014 11013 11012 11012 11011 11010 11009 11008 11006 11005 11004 11003 11002 11001 11000 10999 10997 10996 10995 10994 10993 10992 10991 10990 10989 10988 10987 10987 10986 10984 10983 10982 10981 10980 10979 10978 10976 10975 10974 10973 10972 10971 10971 10970 10969 10969 10968 10967 10966 10965 10964 10962 10961 10960 10959 10957 10956 10954 10953 10952 10951 10949 10948 10947 10946 10944 10944
11021 11021 11021 11021 11021 11021 11020 11020 11020 11020 11019 11018 11018 11017 11017 11017 11017 11016 11016 11015 11014 11013 11013 11012 11011 11009 11008 11007 11006 11005 11004 11003 11001 11000 10999 10998 10996 10995 10994 10993 10993 10992 10991 10990 10989 10988 10987 10985 10984 10983 10982 10980 10979 10978 10977 10976 10975 10974 10973 10972 10972 10971 10971 10970 10969 10968 10968 10966 10965 10964 10963 10962 10961 10960 10958 10957 10956 10954 10953 10952 10951 10950 10949 10948 10947
11021 11022 11022 11022 11022 11022 11021 11021 11021 11020 11019 11019 11018 11018 11018 11018 11018 11017 11017 11016 11016 11015 11014 11013 11013 11011 11010 11009 11008 11007 11006 11004 11003 11002 11001 10999 10998 10997 10996 10995 10994 10993 10992 10991 10990 10989 10988 10987 10985 10984 10983 10981 10980 10979 10978 10977 10976 10975 10974 10974 10973 10973 10972 10972 10971 10970 10969 10968 10967 10966 10965 10964 10963 10962 10961 10960 10959 10958 10956 10955 10954 10954 10953 10952 10951
11021 11021 11022 11022 11022 11022 11022 11021 11021 11020 11020 11019 11019 11019 11019 11019 11019 11018 11018 11018 11017 11017 11016 11015 11014 11013 11012 11011 11010 11009 11008 11007 11005 11004 11003 11001 11000 10999 10998 10997 10996 10995 10994 10993 10992 10991 10990 10988 10987 10986 10984 10983 10982 10980 10979 10978 10978 10977 10976 10976 10975 10974 10974 10973 10973 10972 10971 10970 10969 10968 10967 10966 10966 10965 10964 10963 10962 10961 10960 10959 10958 10958 10957 10956 10956
11020 11021 11021 11022 11022 11022 11022 11022 11021 11021 11020 11020 11020 11020 11020 11020 11020 11020 11020 11019 11019 11018 11017 11017 11016 11015 11014 11013 11012 11011 11010 11009 11008 11007 11005 11004 11002 11001 11000 10999 10998 10997 10996 10995 10994 10993 10991 10990 10989 10988 10986 10985 10984 10982 10981 10980 10980 10979 10978 10977 10977 10976 10976 10975 10974 10974 10973 10972 10971 10971 10970 10969 10969 10968 10967 10966 10966 10965 10964 10963 10963 10962 10962 10961 10961
11020 11020 11021 11021 11022 11022 11022 11022 11022 11022 11021 11021 11021 11022 11021 11021 11021 11021 11021 11020 11020 11019 11019 11019 11018 11017 11016 11016 11015 11014 11013 11012 11010 11009 11008 11006 11005 11003 11002 11001 11000 10999 10997 10997 10996 10995 10994 10993 10991 10990 10989 10988 10986 10985 10984 10983 10982 10981 10980 10979 10979 10978 10978 10977 10977 10976 10976 10975 10975 10974 10973 10973 10972 10971 10971 10970 10970 10969 10968 10968 10967 10967 10967 10966 10966
11019 11020 11020 11021 11021 11022 11022 11022 11022 11022 11022 11022 11023 11023 11023 11022 11022 11022 11022 11022 11021 11021 11020 11020 11020 11019 11018 11018 11017 11016 11015 11014 11013 11012 11010 11009 11008 11006 11005 11003 11002 11001 11000 10999 10998 10997 10996 10995 10994 10993 10992 10990 10989 10988 10987 10986 10985 10984 10983 10982 10981 10981 10980 10980 10980 10979 10979 10979 10978 10978 10977 10976 10976 10975 10975 10974 10974 10973 10973 10972 10972 10972 10971 10971 10971
11018 11019 11019 11020 11020 11021 11022 11022 11023 11023 11023 11023 11023 11023 11023 11023 11022 11022 11022 11022 11022 11022 11021 11021 11021 11020 11020 11019 11019 11018 11017 11016 11015 11014 11013 11011 11010 11009 11008 11006 11005 11004 11002 11001 11000 10999 10999 10998 10997 10996 10995 10994 10992 10991 10990 10989 10988 10987 10986 10985 10985 10984 10984 10983 10983 10983 10983 10982 10982 10982 10981 10980 10980 10979 10979 10979 10978 10978 10977 10977 10976 10976 10975 10975 10975
11018 11018 11019 11019 11020 11020 11021 11022 11023 11023 11023 11023 11023 11023 11023 11022 11022 11022 11023 11022 11022 11022 11022 11022 11021 11021 11021 11020 11020 11019 11019 11018 11017 11016 11015 11013 11012 11011 11010 11009 11008 11006 11005 11004 11002 11001 11001 11000 11000 10999 10998 10997 10996 10995 10994 10993 10992 10991 10990 10990 10989 10989 10989 10988 10988 10987 10987 10987 10986 10986 10985 10984 10984 10983 10983 10982 10982 10982 10981 10981 10980 10980 10979 10979 10979
11017 11018 11018 11019 11019 11020 11020 11021 11022 11022 11022 11022 11022 11022 11022 11022 11022 11022 11022 11022 11022 11022 11022 11022 11022 11021 11021 11021 11021 11020 11020 11019 11018 11017 11016 11015 11014 11013 11012 11011 11010 11009 11007 11006 11005 11004 11003 11002 11002 11002 11001 11000 10999 10998 10997 10997 10996 10996 10995 10995 10994 10994 10994 10993 10992 10992 10991 10991 10990 10989 10989 10988 10988 10987 10986 10986 10986 10985 10985 10985 10984 10984 10983 10983 10983
11017 11018 11018 11018 11019 11019 11019 11020 11020 11021 11021 11021 11021 11021 11021 11021 11021 11021 11021 11022 11022 11022 11022 11022 11022 11022 11021 11021 11021 11020 11020 11019 11019 11018 11018 11017 11016 11015 11014 11013 11012 11011 11010 11009 11008 11007 11006 11005 11004 11004 11004 11003 11002 11002 11001 11000 11000 10999 10999 10999 10999 10998 10998 10997 10996 10996 10995 10995 10994 10994 10993 10992 10992 10991 10990 10990 10990 10989 10989 10988 10988 10987 10987 10986 10986
11016 11017 11017 11018 11018 11018 11018 11019 11019 11020 11020 11020 11020 11020 11020 11020 11020 11020 11021 11021 11021 11022 11022 11022 11022 11022 11021 11021 11021 11020 11020 11019 11019 11018 11018 11017 11017 11016 11015 11014 11013 11012 11011 11011 11010 11009 11008 11007 11007 11006 11006 11006 11005 11005 11004 11003 11003 11002 11002 11002 11002 11002 11001 11001 11000 11000 10999 10998 10998 10997 10997 10996 10996 10995 10994 10994 10993 10993 10993 10992 10992 10991 10990 10990 10990
11015 11016 11016 11017 11017 11017 11017 11018 11018 11018 11019 11019 11019 11019 11019 11019 11019 11019 11019 11020 11020 11020 11021 11021 11021 11021 11021 11021 11021 11020 11020 11020 11019 11019 11018 11018 11017 11016 11016 11015 11014 11014 11013 11012 11011 11011 11010 11009 11009 11008 11008 11008 11007 11007 11007 11006 11005 11005 11005 11004 11004 11004 11004 11004 11003 11003 11002 11002 11001 11001 11000 11000 10999 10999 10998 10998 10997 10997 10996 10996 10995 10995 10994 10994 10993
11013 11014 11015 11015 11016 11016 11017 11017 11017 11017 11018 11018 11018 11018 11017 11017 11017 11018 11018 11018 11019 11019 11020 11021 11021 11021 11021 11021 11021 11020 11020 11020 11019 11019 11018 11018 11017 11017 11016 11015 11015 11014 11014 11013 11012 11012 11011 11011 11010 11009 11009 11009 11009 11009 11009 11008 11008 11007 11007 11007 11006 11006 11006 11006 11006 11005 11005 11004 11004 11003 11003 11003 11002 11002 11001 11001 11000 11000 10999 10999 10999 10998 10997 10997 10996
11011 11012 11012 11013 11014 11014 11015 11015 11016 11016 11016 11016 11016 11016 11016 11016 11016 11017 11017 11017 11018 11018 11019 11020 11020 11021 11021 11021 11021 11021 11020 11020 11020 11019 11019 11018 11017 11017 11016 11015 11015 11014 11014 11014 11013 11013 11012 11012 11011 11011 11010 11010 11010 11010 11010 11010 11010 11009 11009 11009 11008 11008 11008 11007 11007 11007 11007 11006 11006 11005 11005 11005 11005 11004 11004 11003 11003 11003 11002 11002 11001 11001 11000 11000 10999
11008 11009 11010 11011 11012 11012 11013 11014 11014 11015 11015 11015 11015 11015 11015 11015 11015 11016 11016 11016 11017 11017 11017 11018 11019 11020 11020 11021 11021 11021 11020 11020 11019 11019 11018 11018 11017 11017 11016 11016 11015 11014 11014 11014 11014 11013 11013 11013 11013 11012 11012 11011 11011 11011 11011 11011 11011 11011 11010 11010 11010 11009 11009 11009 11008 11008 11008 11007 11007 11007 11007 11007 11006 11006 11005 11005 11005 11005 11004 11004 11003 11003 11002 11002 11001
11006 11007 11008 11008 11010 11010 11011 11012 11012 11013 11013 11013 11013 11013 11014 11014 11014 11014 11015 11015 11015 11015 11015 11016 11016 11017 11018 11019 11019 11020 11019 11019 11019 11018 11018 11017 11017 11017 11016 11016 11015 11015 11015 11014 11014 11014 11014 11014 11013 11013 11013 11013 11012 11012 11012 11012 11011 11011 11011 11011 11011 11010 11010 11010 11009 11009 11008 11008 11008 11008 11008 11007 11007 11007 11006 11006 11006 11006 11005 11005 11005 11004 11004 11003 11003
11003 11004 11005 11006 11007 11008 11008 11009 11009 11010 11011 11011 11012 11012 11012 11012 11012 11012 11012 11012 11012 11012 11013 11013 11014 11014 11015 11016 11017 11017 11018 11018 11017 11017 11017 11016 11016 11016 11016 11016 11016 11015 11015 11015 11015 11014 11014 11014 11014 11013 11013 11013 11013 11013 11013 11012 11012 11012 11012 11011 11011 11011 11010 11010 11010 11010 11009 11009 11009 11008 11008 11008 11007 11007 11007 11007 11006 11006 11006 11006 11005 11005 11005 11004 11004
11000 11001 11002 11002 11003 11003 11004 11004 11004 11005 11006 11007 11008 11008 11009 11009 11009 11009 11009 11009 11009 11009 11010 11010 11011 11011 11012 11012 11013 11014 11015 11015 11015 11016 11016 11016 11015 11015 11015 11015 11015 11015 11015 11015 11014 11013 11013 11013 11013 11013 11012 11012 11012 11012 11012 11012 11012 11012 11012 11011 11011 11011 11010 11010 11010 11010 11009 11009 11009 11009 11009 11008 11008 11007 11007 11007 11006 11006 11006 11005 11005 11005 11005 11004 11004
10996 10997 10998 10998 10997 10997 10997 10998 10999 11001 11002 11003 11005 11005 11006 11006 11005 11005 11006 11006 11006 11006 11006 11007 11007 11008 11008 11009 11010 11010 11011 11012 11013 11014 11014 11014 11013 11013 11013 11014 11014 11013 11014 11013 11013 11012 11011 11011 11011 11011 11011 11011 11010 11010 11010 11010 11010 11011 11011 11011 11010 11010 11010 11009 11009 11009 11009 11009 11009 11009 11008 11008 11007 11007 11007 11006 11006 11005 11005 11005 11004 11004 11004 11004 11003
10990 10991 10992 10992 10991 10992 10994 10995 10996 10998 10999 11000 11002 11003 11003 11004 11004 11003 11003 11003 11003 11003 11003 11004 11004 11005 11005 11006 11006 11007 11008 11010 11011 11011 11011 11011 11011 11010 11010 11011 11010 11011 11012 11012 11011 11010 11009 11009 11009 11009 11009 11009 11009 11009 11008 11009 11009 11009 11009 11009 11009 11008 11008 11008 11008 11007 11007 11007 11007 11007 11007 11007 11007 11006 11006 11006 11005 11004 11004 11003 11003 11003 11002 11002 11002
10984 10985 10986 10985 10985 10988 10992 10992 10993 10994 10995 10996 10997 10998 10999 11000 11000 11000 11000 11000 11000 11000 11000 11001 11002 11002 11002 11003 11004 11005 11006 11007 11008 11009 11009 11008 11008 11007 11007 11007 11007 11007 11009 11010 11009 11008 11007 11007 11007 11007 11007 11007 11007 11007 11007 11007 11007 11006 11006 11006 11006 11006 11005 11005 11005 11005 11005 11005 11005 11005 11005 11005 11005 11005 11005 11004 11004 11003 11003 11002 11002 11001 11001 11000 11000
10978 10980 10981 10980 10979 10981 10986 10989 10990 10990 10990 10990 10992 10993 10995 10995 10995 10996 10996 10996 10996 10996 10997 10998 10999 10999 10999 11000 11001 11002 11003 11004 11005 11005 11006 11006 11005 11004 11004 11004 11004 11005 11008 11008 11006 11005 11005 11005 11005 11005 11005 11005 11005 11005 11005 11005 11005 11004 11004 11004 11003 11003 11003 11003 11003 11003 11003 11003 11002 11002 11002 11002 11002 11002 11003 11002 11002 11002 11001 11001 11000 11000 10999 10999 10998